[[{"header":{"parameterUnit":"m.s-1","parameterCategory":1,"la1":30.2991,"la2":30.254,"lo1":-89.0895,"lo2":-89.0444,"dy":0.0017,"dx":0.0017,"nx":28,"ny":28,"refTime":"2026-02-08T09:00:00:Z","depth":0,"parameterNumber":2,"parameterNumberName":"U-component_of_WINDS"},"data":[0,0,0,0,0,0,0,0,0,0,0,0,0,0,0,0,0,0,0,0,0,0,0,0,0,0,0,0,0,0,0,0,0,0,0,0,0,0,0,0,0,0,0,0,0,0,0,0,0,0,0,0,0,0,0,0,0,0,0.1751,0.1751,0,0.1739,0.1739,0.1739,0.1717,0.1716,0.1716,0.1716,0.1702,0.1702,0.1702,0,0,0,0,0,0,0,0,0,0,0,0,0,0.1755,0.1755,0.1751,0.1751,0.1751,0.1739,0.1739,0.1739,0.1717,0.1716,0.1716,0.1715,0.1702,0.1702,0.1702,0,0,0,0,0,0,0,0,0,0,0,0,0,0.1749,0.1755,0.1751,0.1738,0.1737,0.1739,0.1739,0.1739,0.1717,0.1716,0.1716,0.1715,0.1702,0.1702,0.1702,0.1716,0,0,0.1703,0.1703,0,0,0,0,0,0,0,0,0.175,0.1749,0.1741,0.1739,0.1738,0.1729,0.1736,0.1731,0.1717,0.1725,0.1715,0.1715,0.1712,0.1711,0.171,0.1715,0.1715,0.1703,0.1703,0.1703,0.1703,0,0,0,0,0,0,0,0.175,0.1749,0.1746,0.174,0.1739,0.1733,0.1732,0.1735,0.1722,0.1724,0.1722,0.1721,0.1711,0.171,0.171,0.1714,0.1703,0.1703,0.1703,0.1703,0.1732,0.1733,0,0,0,0,0,0,0.1752,0.175,0.1747,0.1746,0.1742,0.1734,0.1732,0.1732,0.1722,0.172,0.1722,0.172,0.171,0.171,0.1709,0.1726,0.1703,0.1703,0.1703,0.1732,0.1733,0.1733,0,0,0,0,0,0,0.1752,0.1752,0.1747,0.1748,0.1747,0.1735,0.1735,0.1733,0.1732,0.172,0.1718,0.1723,0.171,0.1709,0.1715,0.1725,0.1703,0.1703,0.1731,0.1732,0.1733,0.1759,0,0,0,0,0,0,0.1753,0.1752,0.1757,0.1748,0.1747,0.1753,0.1736,0.1733,0.1732,0.173,0.1721,0.1719,0.1709,0.1715,0.1715,0.1725,0.1703,0.173,0.1731,0.1733,0.1757,0.1761,0.1764,0,0,0,0,0,0.1753,0.1764,0.1758,0.1757,0.1752,0.1754,0.1753,0.1742,0.1733,0.1738,0.1731,0.1719,0.1724,0.1716,0.1716,0.1726,0.1729,0.1731,0.1733,0.1756,0.176,0.1764,0,0,0,0,0,0,0.1774,0.1763,0.1755,0.1764,0.176,0.175,0.1756,0.1747,0.1745,0.1743,0.1729,0.1727,0.1736,0.1731,0.1722,0.1739,0.1725,0.1727,0.1742,0.1746,0.175,0.1751,0.1703,0,0,0,0,0,0.178,0.1782,0.1772,0.178,0.1779,0.1768,0.1768,0.176,0.1756,0.1754,0.1747,0.1743,0.1744,0.1744,0.1744,0.1756,0.1755,0.1763,0.1766,0.1769,0.1771,0.1779,0.1784,0.1739,0.1739,0.1739,0,0,0.1792,0.1786,0.1788,0.1785,0.1781,0.1784,0.1767,0.177,0.1773,0.1754,0.176,0.1755,0.175,0.176,0.1763,0.1756,0.1783,0.1771,0.1773,0.1774,0.1782,0.1786,0.179,0.174,0.174,0.174,0,0,0.1815,0.181,0.1818,0.1815,0.181,0.1803,0.1805,0.1797,0.1793,0.1799,0.1786,0.1788,0.1789,0.1787,0.1786,0.181,0.1801,0.181,0.1829,0.1837,0.1841,0.1844,0.1855,0.1859,0.1812,0.1812,0.1812,0,0.183,0.1835,0.1823,0.1828,0.1828,0.1812,0.1821,0.1818,0.1813,0.1813,0.1805,0.1808,0.1803,0.1813,0.1819,0.1818,0.1821,0.1812,0.1841,0.1844,0.1847,0.1857,0.1861,0.1814,0.1814,0.1814,0.1813,0,0.1855,0.1859,0.1865,0.1863,0.1863,0.187,0.1859,0.1861,0.1853,0.1847,0.1854,0.1848,0.1848,0.1849,0.184,0.1858,0.1854,0.1843,0.1829,0.1853,0.1862,0.1866,0.1816,0.1815,0.1815,0.1815,0,0,0.1892,0.1883,0.1886,0.1886,0.188,0.1882,0.1889,0.1889,0.1892,0.1889,0.1895,0.1897,0.1888,0.1887,0.1878,0.1885,0.1908,0.1874,0.1874,0.1883,0.193,0.194,0.1945,0.1901,0.1902,0.1902,0.1932,0,0.1915,0.1927,0.1917,0.193,0.1935,0.192,0.1926,0.1923,0.1918,0.1921,0.1915,0.1918,0.1904,0.1904,0.191,0.1904,0.1918,0.1902,0.1908,0.1909,0.1912,0.195,0.1959,0.1987,0.1935,0.1936,0.1936,0,0.1944,0.1945,0.1959,0.1954,0.1956,0.1961,0.1962,0.1965,0.1962,0.1958,0.1958,0.1948,0.1955,0.194,0.195,0.1939,0.1941,0.1939,0.194,0.1941,0.1925,0.1954,0.1996,0.2001,0.1942,0.1941,0.1941,0,0.1973,0.1976,0.1986,0.1985,0.198,0.1984,0.1982,0.1979,0.198,0.1981,0.1982,0.1983,0.1984,0.1985,0.1976,0.1965,0.1988,0.1972,0.1987,0.1987,0.1993,0.1993,0.2038,0.1991,0.1991,0.1991,0.1991,0,0.2001,0.2011,0.1999,0.2005,0.2016,0.2005,0.2016,0.2012,0.201,0.2016,0.2002,0.2008,0.1995,0.2,0.1992,0.2004,0.2003,0.2001,0.2,0.2004,0.2004,0.2006,0.2005,0.1992,0.1992,0.1992,0.1991,0,0.2035,0.2027,0.2037,0.2031,0.203,0.2039,0.2034,0.204,0.2034,0.2042,0.2043,0.2034,0.2039,0.203,0.2033,0.2029,0.2045,0.2039,0.2047,0.2046,0.2062,0.2062,0.2111,0.2118,0.2065,0.2065,0.2066,0,0.2054,0.2062,0.2058,0.2061,0.206,0.2065,0.2067,0.2056,0.2059,0.2058,0.2065,0.2069,0.2072,0.208,0.2075,0.2078,0.2073,0.209,0.2074,0.2078,0.2077,0.2077,0.2079,0.2094,0.2095,0.2095,0.2096,0,0.2091,0.2087,0.2091,0.2094,0.2097,0.2099,0.2099,0.2103,0.2092,0.2096,0.2101,0.2104,0.2108,0.2113,0.2115,0.2113,0.2104,0.2101,0.2105,0.211,0.2115,0.2116,0.2059,0.21,0.21,0.2099,0.2099,0.2099,0.212,0.2127,0.2126,0.2131,0.2131,0.2132,0.2138,0.2134,0.2139,0.2142,0.2136,0.2144,0.2142,0.2144,0.2144,0.215,0.2143,0.2148,0.215,0.2152,0.2156,0.2113,0.215,0.215,0.215,0.215,0.215,0,0.2158,0.2157,0.2162,0.2164,0.2169,0.2159,0.216,0.2164,0.2172,0.2172,0.2175,0.2183,0.2188,0.2184,0.2188,0.2195,0.219,0.2196,0.2197,0.2197,0.2161,0.2158,0.22,0.22,0.22,0.22,0.22,0.22,0.2178,0.2191,0.2187,0.22,0.2199,0.2207,0.2209,0.2211,0.2211,0.222,0.2225,0.2222,0.2221,0.2225,0.2231,0.2229,0.2232,0.2241,0.2238,0.2204,0.2199,0.2195,0.2192,0.2241,0.2241,0.2274,0.2274,0.2275]},{"header":{"parameterUnit":"m.s-1","parameterCategory":1,"la1":30.2991,"la2":30.254,"lo1":-89.0895,"lo2":-89.0444,"dy":0.0017,"dx":0.0017,"nx":28,"ny":28,"refTime":"2026-02-08T09:00:00:Z","depth":0,"parameterNumber":3,"parameterNumberName":"V-component_of_WINDS"},"data":[0,0,0,0,0,0,0,0,0,0,0,0,0,0,0,0,0,0,0,0,0,0,0,0,0,0,0,0,0,0,0,0,0,0,0,0,0,0,0,0,0,0,0,0,0,0,0,0,0,0,0,0,0,0,0,0,0,0,0.2866,0.2866,0,0.2836,0.2835,0.2835,0.2812,0.2812,0.2812,0.2812,0.278,0.2779,0.2778,0,0,0,0,0,0,0,0,0,0,0,0,0,0.2904,0.2904,0.2866,0.2866,0.2865,0.2836,0.2835,0.2835,0.2812,0.2812,0.2812,0.2812,0.278,0.2779,0.2778,0,0,0,0,0,0,0,0,0,0,0,0,0,0.2882,0.2903,0.2866,0.285,0.2849,0.2836,0.2835,0.2835,0.2812,0.2812,0.2812,0.2812,0.278,0.2779,0.2778,0.2778,0,0,0.2775,0.2775,0,0,0,0,0,0,0,0,0.2883,0.2881,0.2853,0.2852,0.285,0.2828,0.2837,0.2816,0.2812,0.2826,0.2812,0.2811,0.2796,0.2793,0.2788,0.2776,0.2775,0.2775,0.2774,0.2774,0.2774,0,0,0,0,0,0,0,0.2885,0.2882,0.2854,0.2853,0.2851,0.2845,0.2841,0.2833,0.2813,0.2825,0.2823,0.282,0.2795,0.2789,0.2787,0.2774,0.2775,0.2774,0.2773,0.2773,0.2763,0.2763,0,0,0,0,0,0,0.2889,0.2883,0.2855,0.2853,0.2866,0.2845,0.2841,0.2835,0.2813,0.2809,0.282,0.2819,0.2791,0.2789,0.2786,0.2786,0.2774,0.2773,0.2772,0.2762,0.2763,0.2763,0,0,0,0,0,0,0.289,0.2887,0.2856,0.2868,0.2863,0.2844,0.2838,0.2834,0.2829,0.2809,0.2806,0.2819,0.2791,0.2788,0.2781,0.2784,0.2772,0.2772,0.2762,0.2763,0.2763,0.2784,0,0,0,0,0,0,0.2891,0.2887,0.2887,0.2868,0.2863,0.2851,0.2838,0.2834,0.2828,0.2826,0.2807,0.2803,0.279,0.2782,0.278,0.2783,0.2771,0.2762,0.2762,0.2763,0.2783,0.2785,0.2787,0,0,0,0,0,0.2893,0.2893,0.2887,0.2884,0.2862,0.2851,0.2848,0.2834,0.2828,0.2828,0.2815,0.2804,0.2784,0.2782,0.2778,0.2781,0.2761,0.2762,0.2763,0.2782,0.2785,0.2787,0,0,0,0,0,0,0.2912,0.289,0.2883,0.2878,0.2867,0.2848,0.2846,0.2837,0.2827,0.2825,0.2807,0.2803,0.2798,0.2789,0.2787,0.2781,0.2771,0.2772,0.2787,0.279,0.2792,0.2794,0.277,0,0,0,0,0,0.2916,0.2909,0.289,0.2888,0.2883,0.2866,0.286,0.285,0.2838,0.2833,0.282,0.2808,0.2799,0.2794,0.2785,0.2782,0.2778,0.2782,0.2784,0.2786,0.2787,0.2786,0.2788,0.2766,0.2766,0.2766,0,0,0.2923,0.2911,0.2907,0.2891,0.2881,0.2875,0.2862,0.2855,0.285,0.2832,0.2825,0.2815,0.2801,0.2796,0.2794,0.2788,0.2792,0.2787,0.2789,0.2788,0.2787,0.2789,0.2791,0.2766,0.2766,0.2766,0,0,0.2934,0.2923,0.2921,0.2912,0.2897,0.2886,0.2886,0.2869,0.2862,0.2855,0.2841,0.2835,0.282,0.2811,0.2804,0.2814,0.2804,0.2811,0.2823,0.2822,0.2824,0.2826,0.283,0.2832,0.2812,0.2812,0.2812,0,0.2945,0.2935,0.292,0.2915,0.2909,0.2893,0.289,0.2882,0.2865,0.2861,0.2856,0.2838,0.2827,0.2821,0.2824,0.2819,0.2818,0.2814,0.2825,0.2826,0.2828,0.2832,0.2834,0.2813,0.2813,0.2813,0.2813,0,0.295,0.2944,0.2943,0.2929,0.2922,0.2918,0.2903,0.2899,0.289,0.2879,0.2873,0.286,0.2849,0.2846,0.2837,0.284,0.2837,0.2828,0.2819,0.2831,0.2835,0.2836,0.2815,0.2814,0.2814,0.2814,0,0,0.2971,0.295,0.295,0.2944,0.2928,0.2923,0.2919,0.2909,0.2906,0.2895,0.2892,0.2881,0.2873,0.2866,0.2855,0.2855,0.2865,0.2847,0.2846,0.2852,0.2869,0.2877,0.2879,0.2858,0.2859,0.2859,0.2871,0,0.298,0.2972,0.296,0.2956,0.2951,0.2936,0.2933,0.2923,0.2914,0.2908,0.2897,0.289,0.288,0.2876,0.2875,0.2864,0.2869,0.2863,0.2856,0.2856,0.2861,0.2881,0.2888,0.29,0.2872,0.2873,0.2873,0,0.2989,0.2981,0.2977,0.2964,0.2961,0.2958,0.2949,0.2943,0.2932,0.2925,0.2918,0.2907,0.2903,0.2894,0.2889,0.2885,0.2881,0.2876,0.2876,0.2875,0.2866,0.2881,0.2903,0.2906,0.2875,0.2875,0.2874,0,0.3006,0.2994,0.2991,0.2986,0.297,0.2968,0.2961,0.295,0.2945,0.2937,0.2934,0.2925,0.292,0.2914,0.2901,0.2896,0.2898,0.2887,0.2893,0.2894,0.2894,0.2895,0.2917,0.2891,0.2891,0.2891,0.2891,0,0.3018,0.3016,0.2999,0.2997,0.2995,0.2981,0.298,0.2972,0.2962,0.2959,0.2945,0.2942,0.2925,0.2921,0.291,0.2909,0.2906,0.2901,0.2899,0.2903,0.2904,0.2901,0.29,0.2891,0.2891,0.2891,0.2891,0,0.3037,0.3025,0.302,0.3006,0.3002,0.3002,0.299,0.2988,0.2978,0.2974,0.2973,0.2958,0.2952,0.2939,0.2929,0.2922,0.2923,0.2918,0.2927,0.2926,0.2933,0.2933,0.2955,0.2957,0.2928,0.2929,0.2929,0,0.3045,0.3044,0.303,0.3027,0.3021,0.3017,0.3012,0.2999,0.2995,0.2983,0.2983,0.2976,0.297,0.2962,0.295,0.2943,0.2938,0.2946,0.2937,0.2942,0.294,0.2941,0.2941,0.2949,0.2949,0.2949,0.295,0,0.3062,0.3057,0.3051,0.3044,0.304,0.3033,0.3026,0.3025,0.3009,0.3006,0.3,0.2996,0.2987,0.298,0.2972,0.2965,0.2955,0.2953,0.2954,0.2959,0.2965,0.2963,0.2934,0.2952,0.2952,0.2952,0.2952,0.2952,0.3076,0.3076,0.3066,0.3061,0.3055,0.3049,0.3047,0.3038,0.3034,0.3026,0.3018,0.3014,0.3004,0.2992,0.2986,0.2983,0.2978,0.2979,0.2979,0.298,0.2983,0.2965,0.2981,0.2981,0.2981,0.2981,0.2981,0,0.3093,0.3087,0.3083,0.3074,0.3071,0.3063,0.3055,0.3052,0.3049,0.3041,0.3036,0.3031,0.3025,0.3014,0.3008,0.3008,0.3003,0.3007,0.3007,0.3006,0.2987,0.2987,0.3011,0.3011,0.3011,0.3011,0.3011,0.3011,0.3102,0.3101,0.3095,0.3091,0.3085,0.3081,0.3077,0.3072,0.3067,0.3061,0.3057,0.305,0.3042,0.3035,0.303,0.3027,0.3026,0.3031,0.3027,0.301,0.3007,0.3004,0.3005,0.3031,0.3031,0.3046,0.3047,0.3047]}]]